Theta_e
292 288 287 286 289 291 290 291 292 291 290 288 287 286 286 287 287 288 290 291 291 291 288 290 290 289 290 291 291 292 292 291 291 291 291 292 292 292 292 292 291 290 291 292 294 294 296 298 300 302 303 303 304 305 306 305 304 304 303 302 302 301 301 299 297 296 295 293 292 291 290 289 290 290 291 291 291 291 292 292 292 292 291 291 291 290
292 288 288 291 293 291 292 291 291 291 290 290 289 287 287 285 287 288 293 292 291 291 286 286 287 289 290 292 292 291 290 291 292 291 291 292 292 292 292 291 290 291 291 292 293 294 295 297 300 301 302 302 302 302 303 303 303 303 302 301 300 301 300 299 297 296 295 294 292 291 289 289 289 289 288 289 290 290 291 290 290 290 289 289 288 288
289 288 292 294 294 291 291 290 290 290 290 288 288 286 286 286 287 289 290 290 291 291 288 287 288 290 291 292 293 291 292 293 293 294 294 293 292 291 291 291 290 290 291 292 293 292 293 296 299 300 301 301 302 302 301 301 301 301 300 299 298 297 296 295 295 294 292 292 291 290 290 289 288 289 290 289 289 289 289 289 288 288 287 287 287 287
286 286 293 295 292 292 291 291 289 289 289 287 286 285 286 284 288 286 287 289 291 290 287 287 288 290 292 293 294 295 292 291 290 293 293 293 293 292 292 292 291 290 291 291 292 293 293 295 298 299 300 300 301 300 300 300 298 298 297 298 297 296 294 293 293 292 291 291 290 290 290 290 289 288 289 288 288 287 287 286 287 287 287 287 286 286
289 291 293 293 292 292 291 290 289 288 287 286 288 286 285 287 286 288 287 291 289 290 288 289 289 290 292 293 294 290 289 290 291 291 291 291 292 292 291 291 292 291 291 291 291 292 293 294 297 298 299 299 300 299 299 299 298 297 296 297 296 294 293 292 292 291 291 290 289 289 289 289 288 288 287 286 285 286 286 286 286 286 286 286 286 286
289 292 293 292 290 291 291 289 288 290 285 287 286 290 289 287 289 287 288 290 284 284 285 289 282 279 282 286 290 289 286 288 288 289 290 290 290 291 291 291 290 291 292 292 292 292 292 294 295 297 298 298 299 299 299 298 297 296 296 295 294 293 292 291 291 291 290 289 288 287 286 285 284 283 283 283 283 284 284 284 285 285 286 286 286 285
290 292 294 291 291 289 289 289 288 291 287 285 287 288 290 289 288 288 288 287 282 280 287 288 283 281 282 287 287 286 287 288 288 288 289 288 289 290 291 291 290 290 290 291 292 291 291 292 294 296 297 297 298 298 299 297 295 295 295 294 292 291 291 291 290 290 289 288 287 286 285 285 284 283 283 284 284 284 284 285 284 284 285 285 285 285
292 291 292 291 290 289 287 287 290 292 289 284 286 288 289 288 288 287 287 288 284 283 286 287 282 282 286 286 292 290 288 289 289 289 288 288 288 289 290 290 290 290 290 291 291 291 291 291 293 295 296 296 297 298 297 296 295 293 292 291 291 291 291 290 289 287 287 286 286 286 285 285 284 284 284 284 284 284 285 284 284 284 284 284 284 284
291 289 289 289 289 288 289 289 289 292 289 285 289 288 288 289 286 286 287 284 285 284 282 283 286 284 282 282 285 287 288 291 292 291 288 288 288 289 289 290 290 290 290 291 291 290 290 291 292 293 294 295 296 297 296 295 295 294 292 292 292 290 289 287 287 286 286 287 286 286 285 284 285 285 285 285 285 284 284 284 283 284 284 284 284 284
293 292 293 294 292 289 289 289 290 293 289 290 289 289 288 287 286 283 282 286 281 281 281 283 286 281 285 283 286 285 286 289 291 291 289 289 289 288 288 289 289 289 289 290 291 290 290 290 291 292 294 294 294 295 295 294 293 292 292 290 289 287 287 287 286 286 286 287 287 285 285 284 284 284 284 284 283 283 283 283 283 283 283 283 283 283
294 294 294 293 290 291 290 290 287 291 291 291 290 290 287 284 282 280 280 279 281 277 283 285 286 286 281 283 287 286 287 288 288 287 287 288 288 288 289 289 289 289 289 289 290 289 289 289 290 292 293 293 293 293 293 292 291 291 290 288 287 286 286 286 286 286 286 286 286 285 285 285 284 283 283 283 282 282 283 282 282 282 283 283 283 283
291 292 293 291 293 290 291 290 289 290 290 292 285 283 284 284 280 277 275 277 276 277 279 285 287 287 281 279 283 288 287 287 289 288 286 287 288 289 288 288 288 289 289 289 289 287 287 288 289 292 292 292 292 291 291 291 290 289 288 287 285 285 286 286 286 286 286 286 286 285 285 284 284 284 283 282 282 282 282 282 282 282 283 282 283 282
287 289 289 292 293 294 288 289 288 286 288 289 287 288 283 276 274 274 272 275 274 278 281 280 284 282 284 287 285 287 290 291 290 291 290 288 288 289 288 288 288 288 288 288 288 287 287 288 289 289 291 291 290 291 290 289 289 288 288 286 285 284 285 286 286 286 286 286 286 286 285 285 284 284 283 283 283 283 283 283 282 282 282 281 282 281
286 284 289 290 292 293 294 290 285 285 287 287 288 284 281 275 274 268 269 269 272 276 279 281 283 282 281 286 292 295 295 289 287 287 288 289 289 289 289 288 288 287 287 287 287 286 287 288 288 289 290 291 290 290 289 288 288 288 287 286 285 284 285 286 286 286 286 285 286 285 285 285 285 284 284 283 283 283 283 283 283 282 282 282 282 281
280 280 287 290 288 292 295 295 293 288 288 290 287 290 286 279 273 272 271 274 275 274 276 278 279 276 279 284 287 286 285 285 285 286 287 287 288 288 288 288 287 286 286 286 286 286 287 287 288 289 290 290 290 289 288 288 288 288 287 286 285 285 285 286 286 286 286 286 285 285 285 285 285 284 284 283 284 283 282 282 282 282 282 282 281 281
286 284 284 292 289 292 293 292 290 288 287 285 284 286 283 285 283 281 274 272 272 272 273 275 279 280 284 285 284 284 284 285 284 286 286 286 286 287 287 287 287 287 286 285 286 286 286 287 287 288 289 289 289 288 288 288 288 287 287 286 285 285 285 286 286 286 286 286 285 285 285 285 285 284 284 284 283 283 283 283 283 282 281 281 281 280
283 281 285 288 289 289 290 290 292 291 286 285 287 285 287 286 288 281 275 276 275 272 278 275 280 280 283 286 285 285 285 286 285 285 285 285 285 286 287 287 287 287 286 285 286 286 286 286 286 287 288 288 288 287 287 287 287 287 286 286 285 285 286 286 286 286 285 285 285 285 285 285 284 284 283 283 282 282 282 283 282 282 281 281 281 281
285 281 287 286 288 289 287 288 288 288 289 286 283 286 287 286 285 282 277 270 268 272 275 277 280 280 281 282 281 285 284 285 284 283 284 284 284 286 286 286 287 286 286 286 286 286 286 286 286 287 287 287 287 286 286 286 286 287 287 286 286 286 286 286 286 286 286 285 285 284 284 284 284 283 283 283 283 283 282 282 282 281 281 280 281 281
290 284 285 284 286 288 287 291 290 289 288 288 285 287 289 281 280 280 275 273 270 271 273 276 277 279 282 285 282 285 284 287 287 283 283 284 284 285 286 286 286 286 286 285 285 285 285 286 286 286 286 286 286 285 285 285 286 286 286 286 287 286 286 286 286 286 285 285 285 285 284 284 283 283 283 283 283 283 282 282 281 280 280 280 280 280
290 285 283 285 286 287 287 288 284 285 290 287 288 287 285 282 275 278 281 275 275 272 269 276 276 282 283 285 285 288 288 288 288 283 285 286 286 286 286 286 286 286 286 286 286 286 285 286 286 286 286 285 285 284 284 285 285 285 286 286 286 286 285 285 285 285 284 284 285 284 283 283 283 283 283 283 283 282 282 281 281 280 280 280 279 278
287 287 278 282 284 286 284 286 286 288 286 284 285 284 285 281 283 281 280 278 277 270 269 274 278 277 280 286 288 291 290 289 288 288 287 287 287 287 287 287 287 286 286 286 286 286 285 285 285 285 285 285 284 284 284 285 285 285 285 285 285 285 284 284 284 284 284 284 284 284 283 283 282 282 282 282 282 282 281 280 280 280 279 279 278 278
287 284 284 279 282 282 284 284 287 288 290 289 289 286 288 284 280 277 279 279 274 277 275 270 279 283 283 285 288 289 288 288 288 289 289 288 287 287 287 287 287 287 287 287 286 286 285 285 284 284 284 283 283 283 283 284 284 284 285 285 285 285 284 284 284 284 284 284 284 283 283 282 282 282 282 281 281 281 281 281 280 279 278 278 278 277
293 286 284 279 282 285 284 286 285 286 287 287 287 285 288 288 285 279 278 276 278 282 278 275 272 284 285 285 285 286 285 287 288 288 289 288 287 287 287 288 288 288 287 287 287 286 285 285 284 284 284 284 283 283 283 283 284 284 284 284 284 284 284 284 284 284 284 284 283 283 283 282 282 282 281 281 280 280 280 280 279 278 279 278 278 278
294 289 288 285 284 283 283 284 285 284 287 287 286 282 286 287 287 286 284 281 283 278 279 275 277 282 285 285 284 284 283 284 286 287 289 288 287 287 287 287 287 287 286 286 286 286 285 284 284 283 283 283 283 283 283 283 284 284 284 284 284 284 283 283 284 284 284 283 283 282 282 282 282 281 281 280 280 280 280 280 279 279 279 279 279 278
290 287 289 285 281 281 281 284 285 286 287 284 284 287 287 288 287 284 283 282 281 281 282 281 279 279 286 283 282 283 284 285 286 286 287 287 286 287 287 287 287 287 286 286 286 285 284 283 283 283 284 284 283 283 283 283 283 283 283 283 283 283 283 283 283 283 283 283 282 282 282 282 281 281 281 280 280 280 280 280 279 279 279 278 277 277
292 289 288 284 281 279 278 278 279 282 285 284 282 284 287 288 286 286 285 283 281 282 284 283 284 285 284 285 286 284 284 285 284 285 285 287 287 287 286 287 286 286 286 285 285 285 284 284 283 283 283 283 283 283 283 283 283 283 283 283 283 283 283 283 283 283 283 283 282 282 282 281 281 281 281 281 280 281 280 279 279 279 278 278 277 276
287 288 291 290 287 285 287 285 286 287 283 283 283 287 287 288 290 289 288 285 283 282 283 287 287 288 287 286 286 287 284 286 285 284 286 286 285 287 287 287 287 287 286 286 286 286 284 284 283 283 283 283 283 283 283 282 283 283 283 283 283 283 283 283 283 283 283 283 282 282 282 282 281 282 281 281 281 280 279 278 278 278 278 277 276 275
287 288 290 291 290 291 287 283 285 290 286 287 285 285 287 287 288 287 286 285 286 283 283 287 286 287 289 288 288 287 285 284 284 285 285 285 286 287 287 287 288 286 286 286 286 286 285 285 284 283 283 283 283 283 283 283 283 283 283 283 283 283 283 283 283 283 283 282 282 282 282 282 282 282 282 281 280 279 279 278 278 278 277 276 276 275
289 289 290 289 289 291 288 285 285 287 287 287 287 286 285 287 287 285 286 288 288 286 285 288 289 288 290 291 291 290 289 288 288 288 288 288 287 286 286 286 286 286 286 286 286 286 286 285 284 284 284 284 284 283 283 283 283 282 282 282 282 282 283 283 283 282 282 282 282 282 282 282 282 282 281 280 279 278 278 277 277 276 276 276 275 274
291 289 289 289 289 289 286 283 285 287 285 284 285 286 287 287 286 287 288 289 289 289 290 289 287 289 293 292 291 292 291 289 288 287 287 287 287 287 286 286 286 286 286 287 287 287 287 287 286 285 285 284 284 284 284 283 282 282 282 282 282 282 282 283 282 282 282 282 282 282 282 282 282 281 280 279 278 278 277 277 276 275 275 275 274 274
291 287 289 287 287 288 286 282 282 283 284 284 285 285 286 287 287 287 288 288 289 289 290 290 289 289 290 288 291 288 287 286 286 286 287 287 286 286 286 286 287 287 287 288 288 288 287 287 287 286 285 284 284 284 284 283 283 282 282 282 282 282 282 283 282 282 282 282 282 282 282 281 281 280 279 279 278 277 277 276 276 275 275 274 273 273
289 286 283 285 285 286 282 283 282 283 283 283 285 286 284 284 283 286 285 289 288 287 289 288 287 288 292 288 287 287 287 287 288 287 287 287 287 286 287 287 288 288 288 288 288 288 287 287 287 286 286 285 285 284 284 283 283 282 282 282 282 282 282 282 282 282 282 282 282 282 281 281 280 279 279 278 277 276 276 276 275 274 274 273 273 272
288 286 285 285 284 285 284 286 283 284 285 284 286 288 286 286 288 289 289 290 290 291 287 286 287 293 293 287 287 285 286 286 287 287 287 286 287 287 288 288 289 289 289 289 288 288 288 287 287 287 287 286 285 284 284 283 282 282 282 282 282 282 282 282 282 282 282 282 281 281 281 280 279 278 278 277 276 275 275 274 274 274 273 273 273 272
287 287 285 287 283 284 283 284 285 283 277 281 289 293 290 287 287 286 287 288 290 291 290 293 293 290 286 286 288 287 285 287 288 289 291 290 289 288 289 289 289 289 289 289 289 288 288 288 288 288 287 287 286 285 284 283 283 283 283 282 282 282 282 282 282 282 282 281 281 281 280 279 278 277 277 276 275 274 274 274 274 274 273 273 272 272
286 287 285 286 284 280 282 284 281 276 280 287 282 286 292 292 291 289 290 291 291 291 291 291 291 285 288 289 290 290 289 290 288 288 289 291 291 290 290 289 289 289 289 288 288 288 288 288 288 287 286 285 284 284 283 283 283 281 281 281 281 282 282 282 282 281 282 281 281 280 279 279 278 277 277 276 275 274 274 274 274 273 273 272 272 272
286 286 286 284 284 281 280 282 275 278 286 284 283 282 282 288 290 289 287 289 290 291 291 290 291 292 289 289 289 289 288 287 287 288 289 290 292 291 290 289 289 289 289 289 289 288 288 287 287 286 285 285 284 284 283 283 282 281 281 281 281 281 282 282 281 281 281 281 280 280 279 279 278 277 276 275 273 273 274 274 273 273 272 271 272 271
290 287 286 283 286 279 279 281 282 286 285 285 279 282 287 285 285 286 283 287 290 290 290 290 291 292 288 288 285 285 285 287 287 289 286 288 289 289 290 290 290 289 290 289 289 289 289 287 286 286 285 284 284 283 283 283 281 281 280 280 281 281 281 282 281 282 281 281 281 280 279 279 278 277 275 274 273 273 273 274 273 273 272 271 271 270
292 287 287 284 283 286 281 278 278 279 277 284 283 282 289 289 291 291 288 286 286 291 291 291 290 291 288 285 284 284 286 288 286 288 287 283 284 288 288 290 289 289 289 288 287 285 285 284 283 283 284 283 283 284 283 282 282 281 280 280 281 281 281 281 281 282 281 281 280 280 279 279 278 277 275 274 273 273 274 274 273 272 271 271 270 270
286 288 288 286 284 283 281 279 279 277 282 285 283 285 288 283 288 287 283 283 284 287 289 290 290 290 288 287 285 284 287 286 286 289 288 284 284 286 287 285 285 286 285 286 286 284 283 283 283 283 282 283 283 282 282 282 281 281 280 280 280 280 280 281 281 282 281 281 281 280 279 278 278 277 275 274 274 273 274 273 273 272 270 270 270 269
285 285 286 284 283 284 282 280 279 283 282 280 281 281 283 285 289 287 274 277 280 285 288 289 289 288 287 288 285 287 288 286 287 289 286 285 285 283 284 282 282 281 281 281 281 282 282 281 281 281 282 282 283 282 281 281 281 281 281 280 279 279 280 281 282 282 282 281 280 279 278 278 277 277 275 274 274 273 274 273 270 269 269 268 268 267
282 283 285 282 284 284 284 282 283 283 285 281 279 278 282 285 288 281 278 280 279 279 282 287 288 288 288 284 285 287 288 287 286 285 282 281 281 280 280 280 281 282 282 280 280 281 282 282 284 284 283 283 281 281 280 281 281 280 280 279 278 279 281 282 281 280 280 279 278 277 277 277 276 276 275 274 274 273 270 269 269 268 267 266 265 264
282 283 283 285 283 282 284 281 282 285 285 284 280 284 285 286 278 279 284 280 280 281 281 286 286 285 286 285 286 287 283 279 279 279 281 282 282 279 279 279 279 277 277 278 279 280 281 279 279 279 279 278 279 279 280 280 280 279 277 277 278 280 281 279 278 278 277 277 277 276 275 275 275 275 274 271 269 268 266 264 266 266 266 265 264 263
282 281 279 281 284 283 282 281 279 276 287 284 284 283 283 283 282 284 281 279 280 281 283 283 286 284 286 283 281 278 278 278 280 280 280 279 280 279 279 279 280 280 279 279 278 278 280 279 278 278 278 276 275 277 279 279 278 277 276 277 279 279 276 276 276 276 276 275 275 274 274 273 272 272 270 268 268 268 266 264 264 263 263 264 263 262
287 281 281 283 287 280 281 278 280 287 285 286 288 285 286 284 285 283 285 283 281 281 283 284 282 284 285 284 278 278 278 278 277 277 278 278 278 278 278 277 277 278 277 277 277 277 275 277 277 277 276 274 274 274 277 279 278 276 276 278 279 275 274 274 274 274 274 274 273 272 271 270 269 269 268 267 266 267 265 264 263 262 262 262 262 262
288 285 287 283 287 285 284 286 285 284 286 287 285 283 289 287 284 285 287 286 284 282 281 284 283 282 283 282 280 279 279 279 279 279 280 278 278 278 278 278 278 278 278 277 276 274 275 277 276 275 275 273 272 272 272 274 278 275 276 277 274 274 273 273 271 273 272 272 271 270 268 267 267 266 266 266 266 266 265 263 262 262 260 261 262 261
282 286 283 286 285 283 283 283 283 281 284 283 281 283 284 281 282 283 286 285 284 283 282 283 281 281 280 281 280 279 280 279 279 278 278 278 278 277 277 276 275 274 274 274 274 275 274 273 272 272 273 273 270 271 271 271 274 276 275 272 272 270 271 271 270 271 271 269 269 268 265 266 263 263 264 264 265 267 266 265 263 263 261 261 261 261
282 280 283 283 284 285 282 282 281 283 283 283 282 281 282 281 282 282 283 285 283 281 281 281 282 281 281 281 282 281 280 279 279 278 278 277 277 276 276 277 275 275 275 276 275 274 273 271 272 271 271 272 271 269 269 269 270 273 271 269 271 270 269 269 270 270 267 268 266 263 264 266 265 263 262 262 262 262 263 263 263 263 262 261 261 261
280 282 282 281 284 285 282 282 281 279 281 282 281 282 283 282 281 281 281 281 282 281 282 282 282 281 281 282 282 281 279 279 279 278 278 279 278 277 276 275 275 273 273 273 273 272 271 273 274 271 269 272 271 268 268 268 271 270 267 266 268 266 268 269 269 270 268 266 265 264 263 264 263 263 262 261 262 262 261 261 262 263 263 262 262 262
282 286 280 284 283 278 280 279 278 281 282 283 282 281 282 282 282 280 280 280 281 281 280 280 281 282 282 282 281 280 279 278 279 279 279 278 277 276 275 275 274 275 274 273 271 272 275 272 271 270 269 272 270 268 267 269 270 268 269 268 266 267 269 269 266 265 263 262 262 262 262 263 262 262 262 261 260 261 262 262 262 263 262 261 262 264
284 282 282 282 278 279 280 280 281 281 279 284 283 283 282 281 281 280 279 280 281 280 280 280 278 277 278 280 281 281 280 278 278 278 278 278 277 276 274 274 272 272 272 271 271 270 269 268 270 269 269 271 269 266 266 267 267 265 266 264 264 267 269 268 266 263 264 263 262 262 261 261 261 260 261 261 260 260 258 263 265 264 263 262 266 268
284 285 283 281 283 282 284 282 285 285 285 286 286 284 282 281 280 280 280 280 281 281 281 280 278 276 277 277 278 281 280 279 278 278 277 276 276 276 276 275 274 272 272 268 269 268 268 268 268 267 267 269 267 265 266 266 264 264 264 265 265 267 268 267 267 265 263 262 263 262 262 261 260 260 259 259 259 259 260 260 263 269 270 268 267 269
Wind_Speed
1 3 4 5 9 9 6 9 9 5 4 3 3 2 3 4 5 3 3 4 2 0 6 9 9 8 9 8 9 8 6 7 7 7 7 8 8 8 8 7 7 6 6 4 4 4 4 3 3 3 4 4 5 5 5 6 7 9 10 9 9 7 6 6 8 7 8 10 9 9 10 11 7 8 8 9 8 8 8 9 9 9 8 9 10 9
4 3 7 10 10 8 9 8 5 0 1 2 1 2 6 2 5 5 0 1 1 4 3 3 4 9 12 11 10 6 5 12 13 11 9 10 10 9 9 8 8 6 2 3 3 3 2 3 3 3 4 5 7 3 4 5 6 6 7 8 9 6 5 5 6 8 7 5 5 11 9 10 7 7 7 9 8 8 8 9 9 8 8 8 9 8
1 7 10 12 3 3 1 4 4 5 5 3 4 4 2 7 5 8 3 2 1 1 8 5 6 9 9 10 9 6 11 9 12 15 16 15 12 10 9 9 8 6 7 4 4 4 4 3 3 4 3 3 6 5 4 5 6 5 6 6 7 6 6 6 6 8 9 8 7 9 9 10 11 7 7 8 7 7 9 9 8 8 8 8 9 8
2 6 16 8 4 4 2 2 4 2 2 5 1 2 7 3 1 6 2 2 0 2 3 1 5 9 9 9 14 11 7 5 5 11 11 10 14 15 16 15 13 10 10 8 7 7 5 4 5 4 4 5 6 6 5 5 6 5 5 7 8 8 7 7 7 9 10 11 12 10 11 9 10 10 8 10 8 8 9 10 8 8 8 8 9 8
10 3 2 5 7 7 5 3 4 4 6 3 6 5 3 3 4 7 5 2 3 2 1 4 7 9 9 13 12 2 2 3 4 3 6 5 6 6 4 5 10 14 12 10 7 6 6 6 6 6 5 5 5 5 5 5 5 5 7 8 8 8 8 8 10 11 13 14 12 13 12 12 12 9 7 9 9 7 7 8 8 7 6 8 9 8
9 7 2 6 4 5 4 3 6 7 7 4 5 9 8 5 6 4 2 2 5 3 3 2 5 5 4 5 11 6 3 3 2 4 8 7 6 8 10 11 6 5 8 13 12 10 8 7 5 5 5 5 5 5 4 5 5 7 7 8 8 8 9 10 11 11 10 13 14 12 11 10 10 9 7 9 9 7 8 8 4 7 7 7 8 7
6 3 4 5 5 5 5 5 4 7 7 2 6 8 7 6 4 1 0 3 2 3 2 2 2 10 2 4 4 4 4 9 4 5 7 5 5 7 9 10 10 10 8 4 6 7 8 6 7 7 6 6 6 5 6 6 6 7 9 8 9 9 9 8 9 8 9 9 8 10 10 10 11 12 5 5 5 8 6 6 7 6 6 6 9 8
3 4 6 2 4 5 4 4 6 10 6 5 2 4 4 4 4 3 2 5 5 0 5 1 2 5 14 5 7 4 4 10 9 10 6 5 6 8 8 9 9 10 9 10 10 8 6 7 8 9 7 6 7 8 7 7 6 8 8 10 9 8 8 7 6 6 3 11 9 11 11 10 9 10 11 8 7 6 6 8 7 7 7 8 7 7
6 5 5 5 4 5 8 7 3 9 7 3 1 6 4 5 3 4 3 2 0 3 8 1 1 3 7 5 3 1 4 11 16 13 9 9 8 7 7 8 9 10 10 11 11 10 10 10 7 8 8 6 7 7 8 7 8 7 8 9 9 8 7 6 5 6 4 9 11 12 11 11 8 10 9 7 7 8 6 10 7 8 7 7 6 6
2 6 10 11 9 8 5 1 5 11 6 1 5 7 7 7 6 4 2 2 2 1 8 5 5 4 14 3 2 3 2 10 11 6 7 12 12 9 8 7 8 8 7 7 9 8 7 7 6 6 7 7 5 6 7 7 8 8 8 9 9 7 6 6 7 7 7 9 11 12 12 16 11 9 8 7 8 7 7 10 8 6 6 6 6 6
1 2 3 4 6 5 5 1 1 3 2 7 5 7 6 8 4 3 6 3 2 6 9 9 10 8 10 2 8 8 8 6 4 2 2 4 6 7 7 10 11 10 9 8 8 8 7 6 6 7 10 8 5 6 8 8 8 8 8 9 9 7 7 7 8 8 8 7 9 12 13 15 15 12 12 11 9 8 8 9 7 6 6 5 6 5
1 2 1 1 3 4 4 4 4 2 3 6 3 4 5 3 6 4 4 4 1 8 2 9 13 10 11 5 7 7 4 4 4 4 4 7 12 12 10 9 10 10 9 9 9 8 8 7 6 7 9 9 8 7 7 7 7 7 8 8 10 7 8 8 7 7 8 7 8 9 11 13 12 13 11 13 12 10 10 9 9 6 6 5 5 5
3 3 2 2 3 9 3 7 4 4 2 6 7 7 5 3 4 2 3 2 7 8 1 2 3 2 17 7 5 4 8 8 6 6 6 8 10 10 9 9 9 8 8 10 9 9 9 10 10 9 9 9 9 9 9 8 7 7 8 10 11 8 8 9 7 7 8 8 8 10 10 10 10 10 11 12 12 10 10 9 9 8 7 6 6 5
6 1 1 3 2 4 8 9 3 1 2 6 8 7 6 1 1 3 6 2 6 6 3 2 1 7 2 7 13 20 13 3 4 6 5 6 10 13 12 10 9 8 9 9 9 10 10 10 9 8 9 10 9 9 9 7 7 7 8 9 12 10 8 9 7 8 9 8 8 8 10 10 10 10 10 10 11 9 9 8 9 9 8 7 7 6
3 4 7 8 5 4 9 11 13 7 10 9 2 11 9 8 6 5 5 4 6 3 3 4 3 7 5 4 1 5 4 5 4 6 5 4 5 7 8 8 8 9 7 9 10 10 11 10 10 10 10 9 9 9 9 8 8 9 9 10 11 11 9 10 9 8 9 9 8 8 8 9 8 9 9 8 8 10 10 8 8 7 6 8 6 7
10 6 4 4 2 6 11 1 6 6 3 1 2 6 6 9 7 5 4 3 1 2 3 2 6 4 5 1 4 2 4 3 3 2 2 3 5 9 9 11 11 10 9 8 9 10 9 10 9 9 9 9 9 10 9 10 9 10 10 10 11 13 11 11 11 9 9 9 8 8 9 8 8 7 7 7 6 6 7 8 9 8 7 6 7 5
3 6 1 4 5 4 4 2 2 5 8 5 6 7 7 2 4 0 2 1 1 2 11 4 8 6 8 6 4 3 2 4 1 1 2 4 5 8 10 10 11 11 10 10 10 10 11 8 8 9 10 10 10 10 12 12 11 12 11 11 11 11 11 11 11 10 8 9 9 8 7 8 8 8 9 10 9 8 6 6 7 8 7 6 6 6
8 6 1 4 4 1 0 0 2 4 4 8 4 8 2 2 4 4 5 2 1 3 7 3 9 5 1 10 2 0 1 7 4 3 3 4 5 10 9 10 11 12 11 10 9 9 10 10 11 10 9 10 10 10 10 10 8 9 11 12 13 12 13 11 11 11 10 10 9 8 8 7 8 8 8 8 9 8 8 6 6 6 7 7 6 6
4 3 1 1 1 3 2 1 4 2 3 6 6 3 7 4 2 2 4 3 1 5 6 5 3 8 10 9 2 3 7 10 10 5 4 6 9 10 8 8 7 8 9 11 11 10 10 11 11 11 11 9 9 8 9 9 8 8 8 10 12 13 12 12 10 9 8 8 8 8 8 9 8 7 8 7 8 8 9 8 7 7 7 6 6 7
1 6 2 1 2 1 1 3 9 4 1 2 2 3 1 3 1 5 7 3 5 4 1 9 3 13 6 7 10 9 12 13 8 5 12 14 13 11 10 10 11 12 11 11 11 11 11 11 11 12 12 11 11 10 9 9 8 10 10 10 10 9 9 9 10 10 10 8 9 8 7 6 6 7 9 9 10 9 8 8 8 7 7 7 6 6
3 1 5 1 3 1 3 4 10 14 12 2 2 4 1 0 2 4 0 5 5 4 5 4 12 4 6 6 10 12 12 13 12 14 12 11 11 10 10 12 12 12 12 12 11 12 12 11 11 10 9 9 7 7 9 10 12 11 9 10 11 14 12 12 11 10 10 9 9 11 11 10 8 8 7 8 7 8 8 7 7 6 6 6 6 6
2 2 8 3 1 6 7 3 4 4 5 9 15 14 15 10 5 4 8 1 2 2 6 2 15 6 3 3 8 8 3 3 8 11 11 10 11 12 11 11 12 12 11 11 11 11 11 10 10 8 8 7 9 10 11 9 9 10 11 11 11 11 12 13 12 11 11 10 11 12 11 9 7 8 8 8 8 8 8 8 7 7 6 7 5 5
6 3 7 5 7 9 5 1 2 3 1 1 3 4 7 8 6 6 8 5 0 6 3 3 1 16 4 3 4 4 4 5 5 7 9 6 9 10 10 10 9 10 12 12 11 11 10 10 11 11 12 12 12 11 11 10 11 12 12 11 11 12 11 11 11 10 10 10 11 11 10 9 9 8 9 9 8 8 8 8 7 6 8 7 6 5
6 3 4 1 1 2 2 2 1 0 2 1 2 1 5 11 10 9 5 6 7 2 2 1 6 8 2 1 3 3 3 4 5 6 12 6 6 8 10 11 11 9 7 6 7 7 8 9 9 10 11 11 11 11 13 12 10 10 10 11 10 12 11 10 10 10 10 10 11 10 10 10 9 10 10 10 8 9 8 7 7 6 7 7 6 7
6 4 7 2 2 1 2 2 1 1 1 3 5 7 6 3 3 2 2 1 1 9 9 8 19 1 3 2 3 1 1 2 5 5 5 7 5 8 9 8 9 9 10 11 11 11 9 9 11 12 11 12 12 10 11 11 12 12 11 10 11 10 10 10 9 10 10 10 12 11 11 11 10 11 10 10 9 10 9 8 8 7 7 7 6 5
9 8 10 9 13 14 10 10 11 9 11 5 0 3 6 12 8 4 7 3 9 2 13 9 16 5 3 3 4 4 3 4 4 4 4 6 8 10 9 9 9 10 11 10 10 11 14 12 9 10 11 10 10 11 11 10 10 10 9 10 9 11 10 10 9 10 10 10 12 12 12 11 11 12 12 11 10 10 9 8 8 8 7 7 7 6
3 2 11 14 16 16 16 2 1 9 6 7 8 13 12 11 13 10 6 7 13 2 10 17 15 12 9 2 4 5 4 7 7 4 7 6 5 6 9 12 13 13 14 15 14 12 8 10 14 12 9 10 10 10 11 11 11 10 10 10 10 10 11 10 10 10 11 11 12 12 12 12 12 12 12 11 10 9 8 8 8 9 9 7 7 8
2 4 14 16 17 19 6 3 7 16 14 12 10 12 12 13 12 14 13 14 7 2 20 5 4 14 16 5 8 8 8 6 6 6 5 6 9 12 11 9 8 8 8 9 11 16 18 17 13 12 12 12 11 10 9 8 9 11 11 12 10 9 10 9 10 11 11 12 12 12 12 12 11 11 10 9 9 9 8 8 8 8 7 7 8 8
7 10 12 9 16 16 3 3 9 6 9 10 14 14 14 15 13 18 19 14 10 12 21 4 14 16 16 10 12 12 10 12 14 14 10 6 3 5 7 10 11 12 11 13 14 14 14 13 13 14 14 13 11 12 12 11 10 8 7 8 9 9 10 9 10 11 12 12 12 12 11 10 9 8 9 9 9 9 9 9 8 7 8 7 7 6
5 10 7 10 16 12 5 5 5 9 4 2 9 14 17 18 20 20 18 17 16 17 19 11 9 18 16 8 6 10 12 9 3 2 4 7 10 10 10 10 11 11 12 13 13 12 12 14 14 14 14 13 14 14 13 11 11 11 12 12 10 9 9 10 11 12 12 12 12 10 9 10 9 10 9 9 10 10 9 9 9 8 8 8 7 7
6 4 6 4 6 12 6 4 4 5 6 8 11 14 16 15 16 17 17 15 13 17 23 16 17 26 7 5 9 1 3 5 4 5 8 7 8 10 10 11 10 12 13 14 12 12 12 12 11 11 13 14 15 15 14 13 12 11 11 10 10 11 10 10 11 11 11 12 10 9 9 10 10 9 10 10 9 9 10 10 8 8 8 8 8 8
2 3 2 3 8 11 4 8 4 3 1 7 16 19 9 7 6 8 13 13 12 20 18 14 20 22 10 5 2 3 6 8 11 10 8 8 10 10 12 12 13 13 13 13 13 12 11 12 13 15 17 16 14 13 13 13 12 11 13 11 11 11 9 10 11 12 12 11 10 10 11 11 10 10 10 9 10 9 8 8 8 8 8 8 8 7
4 6 5 5 8 11 2 9 7 5 1 8 27 20 14 14 16 17 17 16 19 19 14 17 19 21 9 6 7 5 7 10 9 9 7 5 8 12 14 14 14 14 14 14 12 14 15 16 17 18 15 12 14 15 15 13 11 13 12 12 11 9 11 13 13 12 12 11 11 11 11 9 10 10 9 10 9 8 8 9 9 8 8 9 7 7
4 6 5 4 7 4 5 7 6 5 5 18 2 15 21 21 22 20 18 18 17 15 17 18 18 5 5 7 10 12 11 12 15 15 14 15 15 13 13 14 14 13 12 11 13 15 16 13 10 11 15 16 15 14 11 12 15 15 12 11 9 11 12 12 12 12 12 11 12 11 10 10 9 10 10 9 8 8 9 9 11 9 7 6 6 7
5 3 3 3 3 4 5 9 6 12 19 3 2 3 17 22 19 22 21 19 20 20 20 18 15 6 11 13 15 13 16 13 7 8 10 11 13 12 14 11 9 9 11 12 11 10 10 11 12 10 8 9 10 8 8 9 9 5 7 9 11 11 11 11 11 11 12 12 11 10 9 10 10 10 9 9 9 9 9 10 9 9 8 8 9 9
8 9 4 3 3 4 4 8 6 12 4 4 3 0 2 3 9 12 16 18 18 18 20 20 21 19 10 9 8 7 8 4 4 3 7 8 11 13 11 10 11 11 11 11 12 11 10 11 13 13 13 8 7 8 9 11 8 8 9 8 11 11 11 12 12 13 12 12 11 12 12 11 11 10 9 9 9 10 11 10 10 11 9 7 6 5
13 6 6 5 5 7 6 10 13 7 13 8 3 3 9 9 8 13 11 18 18 16 16 18 21 18 8 8 5 4 5 5 5 5 4 6 5 2 9 11 11 11 11 8 9 12 11 9 9 10 6 6 8 8 10 8 9 9 8 10 10 11 11 12 13 14 13 12 11 11 11 11 12 11 10 10 11 12 12 12 10 8 7 8 8 9
11 14 8 10 6 9 7 4 1 5 12 18 4 4 8 6 12 15 10 13 5 17 17 18 19 18 12 5 5 5 5 8 6 8 6 3 4 6 4 5 6 6 7 6 3 3 5 5 4 4 6 7 8 9 8 8 10 10 10 10 10 11 11 12 14 13 12 12 11 12 13 13 13 13 12 11 13 14 12 10 7 9 9 12 11 11
3 4 8 14 6 7 6 8 8 10 14 3 4 10 11 3 7 6 3 14 4 13 15 18 20 16 12 12 8 7 9 10 11 8 7 5 3 4 7 4 4 5 6 9 11 9 7 6 6 6 5 6 8 7 8 9 10 10 11 10 10 10 11 13 14 12 13 14 13 12 11 11 11 12 12 13 13 11 12 11 11 8 7 7 7 7
8 7 6 10 9 10 10 9 11 6 9 3 5 2 5 6 9 8 1 11 4 14 14 17 18 14 12 13 13 12 14 12 10 8 6 9 8 5 7 10 8 7 5 4 2 4 7 7 7 5 6 8 9 7 8 9 10 10 10 9 8 9 12 14 14 14 13 10 9 9 10 10 12 12 12 14 12 10 11 7 6 8 9 6 5 6
6 4 8 14 13 12 13 8 3 6 5 3 4 2 4 5 7 9 16 7 2 4 4 8 11 11 11 10 10 12 8 3 4 5 9 9 8 5 4 4 5 7 9 6 6 6 7 6 8 10 9 7 6 7 7 8 9 8 7 7 8 12 14 14 10 8 7 7 8 8 10 9 11 13 12 11 11 9 6 6 8 7 7 8 6 5
9 8 4 8 11 12 12 11 11 7 6 7 0 13 8 8 8 17 5 1 4 4 4 8 8 7 10 14 12 6 5 2 5 5 8 7 7 6 5 7 7 7 4 4 5 6 6 5 4 4 3 3 6 6 7 7 8 7 6 7 10 15 13 6 5 6 6 8 9 9 9 10 9 10 10 7 8 8 8 5 6 7 7 6 7 8
12 8 7 10 6 2 1 10 2 8 7 12 12 3 3 8 6 4 3 1 1 4 8 5 7 7 10 6 3 7 6 5 7 8 7 7 8 8 8 8 9 9 8 6 4 2 6 5 4 4 3 2 4 5 6 8 8 6 7 9 15 10 5 5 6 7 7 8 8 9 10 9 10 10 8 8 9 10 9 7 8 7 7 8 8 8
6 7 5 9 10 9 11 10 10 6 5 14 20 15 13 8 1 4 8 3 1 3 5 6 3 7 8 12 9 6 8 8 4 7 7 5 5 5 5 5 4 5 4 3 3 4 4 4 3 2 1 2 2 4 5 9 8 7 8 14 7 4 5 5 6 6 7 8 8 8 8 8 8 7 7 9 9 9 9 9 8 7 8 8 9 8
13 13 6 9 9 11 9 9 0 1 10 9 3 2 9 6 3 5 5 6 8 4 3 6 7 6 7 11 11 12 8 8 11 8 11 8 8 8 8 7 6 6 6 5 4 4 4 5 5 3 1 1 2 2 4 4 8 6 10 5 4 5 6 6 6 7 7 8 7 8 6 6 7 8 8 8 10 10 9 8 8 9 6 7 7 8
3 4 1 3 4 2 3 1 2 1 4 3 2 1 4 3 2 1 6 6 1 4 7 9 8 9 8 10 13 5 10 9 10 5 6 7 7 4 4 4 3 3 3 4 3 3 4 3 3 4 3 1 1 2 2 2 5 9 5 1 4 4 5 6 6 6 7 6 7 7 7 8 6 6 7 8 8 10 10 12 11 10 9 8 9 9
4 1 3 3 2 7 8 4 3 4 4 5 1 1 1 2 4 3 3 5 5 7 5 5 12 11 12 11 14 12 9 8 9 7 7 7 7 6 5 6 5 5 7 6 5 6 4 5 4 3 2 3 1 4 3 5 4 4 1 1 3 5 5 6 6 6 5 7 5 4 5 8 8 7 6 6 6 6 7 7 8 8 9 9 10 9
4 4 3 2 6 12 3 3 3 2 1 1 2 4 5 2 2 1 2 2 5 4 5 8 7 8 7 8 9 13 11 8 11 8 7 6 7 6 5 5 6 4 3 3 5 5 5 5 5 5 4 5 4 4 5 5 6 5 3 2 4 5 5 5 6 7 6 6 6 7 7 7 7 8 7 7 7 8 7 7 8 10 12 13 13 11
3 8 6 8 7 1 3 2 1 3 1 2 4 4 1 3 5 3 3 6 7 9 7 4 1 10 11 10 9 12 11 7 9 11 10 6 5 5 5 5 6 6 7 5 5 7 8 6 6 5 5 6 4 5 5 6 6 4 5 4 5 6 6 7 5 5 5 5 5 6 5 7 7 7 7 6 6 6 5 8 9 10 7 3 4 8
6 10 3 6 3 6 12 11 10 9 6 10 9 7 5 3 4 7 6 6 6 9 9 10 4 2 3 8 12 13 13 10 7 8 9 8 8 7 5 6 5 6 5 4 6 5 4 6 5 5 5 5 2 4 4 4 3 2 3 4 4 5 6 5 5 5 5 6 6 5 6 6 6 5 6 7 7 7 5 4 8 6 6 5 7 12
11 10 10 10 13 14 7 9 11 2 3 9 12 6 5 5 8 10 9 10 8 10 12 12 9 5 5 4 5 12 10 12 10 7 8 6 7 7 9 9 7 5 5 4 5 3 5 4 2 2 3 4 1 3 4 4 4 4 4 5 5 6 6 6 6 5 5 5 7 7 6 5 6 5 5 5 5 5 6 4 5 12 13 9 9 11
Wind_Direction
123 108 166 197 219 210 195 188 196 199 148 114 100 117 204 205 278 287 269 260 187 86 233 230 238 250 265 250 252 226 213 228 232 220 210 202 198 194 190 182 175 172 173 198 176 155 151 150 133 127 115 114 99 102 121 118 120 126 125 123 113 117 117 117 117 106 105 108 104 82 84 88 78 77 75 71 64 66 64 61 64 65 67 68 71 67
64 112 242 225 219 187 197 201 222 33 128 174 185 181 268 160 252 243 236 340 320 171 289 251 252 258 258 264 252 237 181 225 214 217 217 206 202 196 183 177 177 173 130 132 122 136 130 146 135 132 129 133 117 98 118 117 119 124 123 123 121 114 105 97 99 108 93 78 93 113 105 103 90 81 78 82 68 70 68 61 62 64 64 66 67 67
143 186 232 231 198 146 109 162 179 197 244 231 203 230 256 263 246 289 266 302 280 129 259 289 276 265 265 264 264 213 209 222 210 205 209 197 195 190 186 176 165 160 165 165 163 166 166 160 152 139 137 128 120 121 108 118 115 107 110 110 109 108 101 87 92 100 105 99 89 99 104 102 99 71 78 83 79 73 75 65 61 61 63 67 66 64
270 284 246 233 123 149 226 151 155 196 225 220 197 148 226 237 136 285 288 348 319 166 267 22 313 279 273 261 257 246 210 247 220 216 221 198 190 188 189 179 168 166 163 170 172 172 177 166 158 148 141 135 127 123 118 116 118 111 105 107 106 108 105 104 100 103 98 100 100 88 99 89 91 106 91 83 74 72 73 65 60 55 62 64 70 65
201 218 267 133 161 161 198 195 149 169 233 249 196 192 213 210 236 188 252 315 318 328 61 319 294 279 246 254 264 329 319 262 256 249 230 216 204 182 134 149 171 168 166 164 168 172 171 162 168 159 144 134 133 132 136 133 124 116 115 110 111 109 109 109 116 117 118 110 100 101 94 98 92 79 86 88 68 65 71 76 57 51 56 65 69 64
266 260 83 105 143 167 169 216 211 169 227 264 230 193 202 188 212 267 353 17 9 333 345 76 322 293 279 256 253 282 342 268 257 206 220 200 175 158 172 175 172 170 172 165 169 172 171 164 159 151 146 137 137 136 130 126 126 123 112 116 113 110 116 123 125 129 128 125 128 126 120 113 105 96 88 91 104 90 78 79 79 61 54 66 71 66
209 218 156 155 146 168 184 200 231 165 209 178 268 193 204 192 189 170 216 67 292 253 302 35 207 284 287 260 263 259 245 255 267 229 228 201 186 181 180 174 173 168 168 165 155 159 162 168 157 156 154 144 139 135 127 121 126 122 125 121 125 128 125 130 133 136 130 114 113 116 117 118 119 117 92 99 93 101 93 89 78 74 60 58 73 64
145 230 194 142 141 154 170 214 241 169 162 234 244 149 147 134 170 203 148 178 236 253 297 28 121 267 292 252 243 262 234 265 263 243 226 213 201 198 185 176 171 171 170 165 169 167 166 165 163 159 154 147 145 138 133 131 134 133 135 133 131 127 129 133 134 133 141 121 118 111 108 109 112 113 124 120 108 95 102 90 82 78 65 57 58 69
153 187 171 194 187 179 202 206 195 155 154 219 182 125 142 160 161 116 116 147 359 22 283 306 339 308 254 274 305 263 248 258 254 243 212 208 209 200 184 178 175 174 172 167 165 170 170 168 168 155 149 145 141 145 139 141 138 136 134 129 127 127 129 125 121 119 116 122 123 120 120 110 106 114 116 114 107 104 103 93 82 78 72 68 60 61
294 172 201 179 170 212 216 248 168 163 196 254 130 86 78 75 66 94 94 82 331 37 255 188 186 220 274 218 207 345 236 265 259 261 207 207 200 190 180 178 174 170 169 170 163 158 159 161 162 154 134 139 150 140 127 128 134 137 133 130 127 126 125 122 114 115 119 124 125 123 127 124 126 123 117 114 114 107 105 97 91 86 83 80 74 64
263 294 180 109 197 195 127 82 148 232 164 128 84 66 27 42 31 21 61 83 34 265 247 182 206 171 281 216 197 165 215 205 269 303 279 197 188 190 187 176 173 171 167 163 157 157 155 158 153 151 149 142 136 131 134 139 142 143 135 132 125 129 120 117 118 125 126 126 127 129 133 132 134 134 131 126 115 115 109 109 106 102 100 89 87 84
1 355 125 269 103 111 107 86 15 73 118 127 93 118 59 342 15 30 344 40 141 264 248 204 195 181 217 292 277 246 267 228 206 239 228 201 199 192 185 182 175 167 164 158 153 154 149 147 157 159 150 149 145 135 137 144 142 140 132 129 124 125 125 120 122 123 124 126 125 127 132 132 135 138 137 131 132 136 128 127 124 122 110 99 91 85
283 198 253 335 204 136 110 83 360 23 13 85 91 83 132 252 33 299 24 273 207 232 295 32 108 9 242 233 255 280 271 257 222 230 227 206 203 190 184 178 170 164 158 159 159 154 159 162 165 167 159 150 155 155 151 153 146 137 135 137 131 135 135 128 131 131 129 131 135 138 135 133 135 136 134 134 134 143 137 139 134 134 125 125 106 99
267 292 301 232 347 232 144 148 156 97 224 117 143 152 128 143 222 279 261 262 309 291 274 350 85 256 298 278 237 249 253 263 250 243 242 208 193 186 178 168 163 165 165 164 159 162 165 166 169 169 162 159 160 157 155 153 146 141 142 144 138 143 142 135 134 138 136 139 142 144 142 141 140 139 140 141 140 146 141 143 140 140 139 134 130 129
223 316 243 148 238 183 183 189 183 158 163 203 97 151 186 147 150 229 188 204 222 222 289 275 124 233 133 243 296 264 296 279 275 257 249 215 182 165 154 149 152 161 170 163 165 169 169 170 170 169 166 164 163 160 158 156 153 147 149 149 146 142 149 144 147 145 145 145 147 148 145 142 143 142 143 144 144 144 142 143 136 134 135 130 136 129
212 229 268 223 313 152 182 193 109 91 68 233 162 63 95 217 150 229 197 171 250 324 324 204 211 189 184 254 282 281 299 309 344 9 96 101 118 136 147 164 170 171 168 168 167 170 171 172 171 168 170 167 166 166 163 162 161 157 156 155 154 150 153 152 150 155 152 151 149 150 148 148 144 139 135 132 135 137 139 143 139 136 135 133 130 131
48 265 296 331 41 153 174 126 163 146 192 207 108 195 208 159 146 157 19 38 111 44 255 150 281 289 299 294 248 310 330 294 360 31 100 132 147 152 168 172 174 173 169 173 174 173 172 172 176 176 173 170 171 172 173 170 168 161 156 156 154 154 154 156 156 154 155 151 149 151 148 146 146 148 148 147 145 139 134 131 132 132 136 132 132 131
156 237 293 98 199 313 160 199 98 31 149 97 184 228 111 94 111 136 228 337 66 206 273 136 229 274 116 273 346 18 303 268 263 230 185 161 167 178 181 178 178 177 174 173 174 173 173 177 177 179 180 176 178 173 169 167 164 163 161 160 156 159 159 160 157 157 159 155 151 150 151 152 153 151 145 143 143 141 135 131 127 128 131 141 143 131
117 297 298 342 116 291 352 98 32 353 44 152 194 199 129 242 219 292 89 268 247 253 278 276 246 254 189 238 56 237 225 241 234 208 176 194 197 196 182 179 174 164 166 175 176 175 178 180 182 181 181 178 172 173 169 160 159 161 162 163 161 162 163 157 155 151 151 152 150 155 156 155 152 149 144 142 140 142 140 142 145 144 142 133 132 127
133 190 285 344 122 319 14 130 192 202 336 43 79 88 75 102 167 134 202 177 112 258 49 283 76 259 176 218 185 216 211 223 212 181 216 208 198 188 184 178 176 179 180 179 180 180 180 182 182 180 177 174 173 171 169 161 160 166 167 163 160 152 151 150 153 156 155 155 150 149 147 153 154 152 152 152 149 148 148 149 147 144 142 144 132 130
207 130 251 294 320 94 192 186 195 169 177 145 121 190 140 314 237 117 336 148 175 184 201 276 296 270 251 209 179 207 205 214 194 206 214 211 201 194 186 180 180 181 180 182 181 179 179 181 180 177 174 171 164 165 165 169 170 169 165 166 165 161 161 160 160 158 159 153 155 154 159 160 158 156 151 147 149 143 147 149 145 146 143 129 134 136
149 175 201 133 183 225 249 257 236 211 209 192 175 187 180 144 149 167 254 55 134 143 240 165 261 259 267 177 211 204 216 222 217 208 216 209 194 191 186 186 181 180 185 181 180 177 178 174 175 171 168 165 164 171 172 170 165 170 174 172 167 164 167 162 164 163 159 160 158 162 161 161 157 154 151 148 149 148 152 154 151 146 139 138 141 138
167 135 100 193 212 205 219 282 249 240 110 200 174 225 182 184 143 157 212 238 321 241 119 183 313 272 213 188 201 213 209 228 218 206 232 209 198 191 187 184 185 184 179 179 178 179 177 175 176 177 175 175 175 172 170 172 176 177 176 172 173 168 172 168 163 160 159 159 162 163 161 157 159 157 156 153 154 157 157 154 147 146 142 144 146 143
108 128 174 207 54 315 311 298 18 94 113 322 309 128 146 205 191 196 193 184 186 174 148 284 246 266 315 311 269 240 239 253 263 214 225 206 182 186 182 179 179 174 174 170 171 169 173 174 172 171 177 174 176 177 179 179 177 177 177 176 169 173 168 165 163 162 163 163 163 161 159 165 163 160 161 161 163 162 159 152 151 146 141 146 147 150
154 244 161 145 331 333 350 336 335 360 101 208 200 208 203 209 234 191 93 101 277 212 166 154 247 162 269 338 308 321 349 304 254 246 216 208 184 180 184 179 173 170 165 170 173 170 167 176 182 184 180 181 181 179 178 180 183 179 177 173 173 171 169 164 166 167 166 164 161 165 168 169 167 166 168 167 165 164 158 157 151 148 148 148 154 154
180 157 156 184 211 227 226 202 200 197 201 188 189 132 178 196 197 170 244 168 235 192 161 215 249 211 283 310 306 311 324 299 267 242 233 208 181 175 173 172 172 172 175 168 167 171 182 184 181 186 188 184 182 180 180 182 181 179 176 179 173 168 172 173 166 169 164 167 168 172 175 171 171 174 173 170 167 164 163 157 153 152 152 158 159 157
152 216 185 193 206 223 236 228 138 101 64 187 209 183 203 200 204 202 229 218 219 126 205 226 238 267 267 260 274 271 251 240 259 237 214 206 196 184 172 175 179 179 175 176 176 175 168 183 193 190 187 189 186 184 183 182 180 179 177 178 181 178 173 169 168 169 171 174 176 176 178 176 180 177 176 172 167 162 159 160 158 159 163 165 163 163
91 174 213 209 213 228 193 151 186 164 181 200 174 205 198 196 193 196 210 227 116 172 258 187 197 249 253 216 232 238 247 255 247 228 223 210 189 186 187 176 167 172 178 175 177 178 184 188 184 184 188 188 190 187 185 182 183 183 181 181 181 176 173 171 171 174 177 177 181 184 182 182 180 179 174 168 163 163 162 160 163 166 161 160 166 170
162 205 218 198 230 235 192 135 168 175 183 182 193 192 194 203 194 202 220 218 162 210 247 160 196 237 248 222 226 215 209 214 217 215 210 196 154 142 151 169 178 180 177 182 190 192 187 179 184 189 190 190 183 186 186 183 183 180 182 184 185 177 180 171 173 179 181 182 185 190 184 178 180 177 171 167 164 165 166 166 165 163 162 168 167 165
146 223 205 184 226 234 212 149 176 169 177 176 208 204 200 196 204 205 218 214 207 233 247 239 230 244 243 228 217 226 219 212 209 121 132 164 178 172 171 177 180 182 186 191 193 192 192 193 189 191 187 185 188 188 187 186 185 186 185 188 183 178 179 170 183 182 185 187 191 185 180 182 180 179 171 169 172 172 169 168 167 166 166 169 168 166
148 245 123 149 219 242 216 112 147 166 171 221 229 220 212 204 206 205 215 223 220 242 243 244 254 256 239 158 216 306 92 123 127 168 189 182 164 173 174 178 181 186 192 196 193 192 195 194 194 189 190 194 192 190 188 189 188 186 189 188 181 183 182 177 182 187 188 193 189 184 182 184 186 177 178 177 170 172 170 170 168 168 169 168 166 167
167 231 40 124 201 246 159 165 160 142 189 243 255 232 197 174 192 209 221 214 196 224 232 238 247 255 242 192 94 180 164 170 189 193 184 186 177 167 176 182 187 193 195 194 193 191 190 194 192 194 199 197 193 189 189 191 189 185 195 186 184 183 170 178 186 189 193 193 188 187 187 190 182 180 181 175 179 173 172 166 167 172 172 169 170 171
184 127 155 176 190 234 191 157 152 109 7 308 253 232 172 203 203 216 221 212 207 213 219 222 237 242 238 160 167 204 190 203 204 192 182 168 174 177 182 186 192 193 195 195 189 191 195 197 199 199 198 191 192 195 199 186 177 193 192 185 187 164 175 188 191 191 193 193 191 191 191 186 185 186 181 183 177 170 168 171 173 175 174 182 178 159
106 153 177 179 188 198 116 133 110 156 203 233 296 144 175 194 204 213 221 216 218 203 220 222 236 247 135 169 183 201 196 207 199 206 187 173 171 180 188 192 195 195 196 194 193 195 199 198 198 199 199 198 197 196 186 180 190 197 189 182 166 175 185 186 193 193 196 194 196 192 188 187 186 188 187 179 174 171 175 176 185 182 178 166 161 176
167 173 189 150 180 177 151 111 160 207 229 249 315 271 183 194 197 210 223 217 220 217 229 242 248 230 202 192 204 199 202 210 203 168 168 173 168 179 187 190 190 191 194 193 198 203 197 193 197 199 196 200 195 184 171 192 198 162 157 169 175 184 183 189 191 196 199 198 196 187 187 189 189 191 186 182 177 176 180 184 182 179 180 177 180 182
188 189 152 207 137 52 142 177 209 226 264 331 315 154 5 166 202 203 236 238 228 220 217 230 237 235 218 217 224 218 190 161 109 161 174 185 185 177 171 184 194 191 195 199 196 194 186 189 194 193 201 190 170 180 184 193 173 166 182 169 180 182 186 187 194 201 200 200 193 192 191 187 190 191 187 181 177 180 187 188 187 183 176 179 184 184
181 177 167 218 166 194 196 201 233 351 317 266 125 224 162 171 169 177 214 243 219 219 212 224 233 234 216 223 198 110 112 110 142 208 251 198 180 168 179 187 182 193 196 193 184 194 193 189 188 197 179 167 178 175 190 174 167 176 166 175 186 183 188 190 199 205 202 200 194 193 189 188 189 191 185 183 183 191 193 189 188 185 174 180 187 169
180 188 193 201 213 193 184 223 326 255 247 253 205 214 203 193 174 182 187 260 194 208 208 211 225 226 208 164 143 151 134 123 189 228 235 228 178 179 191 190 189 179 166 156 128 133 165 176 159 143 157 165 177 189 177 169 171 170 175 186 184 183 191 194 208 206 198 200 196 194 192 192 188 189 189 186 193 196 197 193 188 188 183 185 180 189
272 254 198 201 185 162 202 214 213 221 241 237 198 186 187 129 133 98 79 258 224 192 202 201 216 217 180 158 175 146 144 185 209 194 211 172 178 175 160 159 142 149 149 159 162 163 166 162 155 155 151 158 183 191 170 167 164 170 186 187 185 186 192 204 210 202 200 204 200 195 191 190 190 192 189 194 200 196 193 192 193 183 173 193 188 189
200 195 173 214 206 195 199 208 225 214 249 256 205 182 165 137 121 101 78 259 252 201 198 191 207 194 178 176 158 170 175 203 203 215 169 162 160 167 158 149 136 130 131 123 92 132 138 130 110 128 150 176 196 167 162 159 165 179 186 185 175 185 204 210 209 205 206 201 189 189 189 190 191 194 191 197 196 192 198 182 161 173 179 185 182 174
188 209 207 205 206 212 211 232 276 279 264 206 190 190 148 161 132 155 220 231 232 186 199 180 196 187 164 158 167 177 218 191 186 163 136 137 119 101 75 84 114 127 134 132 128 125 130 150 149 162 179 184 159 152 157 154 161 181 182 169 175 204 212 213 207 197 194 185 182 185 190 189 192 195 198 195 193 185 172 169 175 161 172 178 172 168
207 187 219 210 218 212 212 223 231 260 237 166 345 152 165 112 195 218 223 195 143 180 170 177 171 162 158 169 185 181 153 109 91 94 128 141 137 131 117 112 99 73 59 98 139 138 132 127 112 110 116 119 139 143 144 149 163 177 163 174 202 216 216 197 182 177 173 179 186 187 187 191 196 195 189 174 156 163 176 170 159 171 172 169 173 184
179 165 195 205 208 309 141 230 181 242 246 131 121 77 277 187 245 168 148 10 216 150 142 157 164 170 155 150 113 123 125 123 134 136 132 134 131 137 136 134 136 142 145 138 117 104 123 123 138 165 148 105 124 141 152 150 164 168 176 187 219 213 175 175 167 170 176 180 184 189 190 191 186 182 170 172 174 171 176 168 168 172 168 172 179 186
157 155 197 220 183 194 195 204 212 221 92 159 147 181 194 199 199 168 129 107 76 160 154 134 147 167 160 146 143 137 137 125 103 121 114 112 114 112 117 123 119 116 103 79 114 144 125 136 148 125 82 92 133 154 161 163 162 173 176 215 210 147 161 160 171 164 173 185 191 186 189 185 181 174 171 171 167 172 169 176 176 172 179 180 181 186
193 200 169 197 171 192 206 215 115 230 165 187 137 354 156 186 170 205 133 141 153 203 180 129 156 150 161 140 140 141 140 156 149 157 140 155 145 147 149 161 154 152 148 146 145 149 138 152 161 141 141 120 148 170 172 177 163 161 200 224 139 177 163 166 156 169 181 189 186 184 178 166 175 177 176 174 169 173 177 175 168 178 188 177 189 192
322 211 16 113 228 34 355 189 336 329 171 201 3 317 141 125 188 181 147 116 216 149 170 155 155 146 140 145 129 159 147 154 137 143 124 136 140 147 112 100 87 90 109 103 109 145 145 119 120 139 178 224 170 162 158 183 159 182 214 134 160 156 160 149 161 177 194 183 183 181 162 169 176 176 179 176 186 188 183 179 180 185 180 184 197 197
246 159 173 176 171 158 233 171 173 207 175 185 96 345 6 103 179 197 146 127 141 143 118 138 149 154 157 158 149 150 150 146 135 137 139 137 144 152 153 154 160 159 154 169 181 142 127 139 139 173 174 210 228 173 185 192 218 207 148 146 154 150 147 160 170 182 175 185 171 157 166 179 181 178 181 184 185 186 178 178 181 183 183 190 194 197
259 170 147 202 180 194 244 168 188 326 306 150 158 162 177 157 101 72 44 75 117 120 128 148 136 133 145 146 149 143 145 152 139 149 147 154 157 161 155 156 161 162 203 171 161 151 143 157 171 180 183 218 228 186 193 200 216 212 191 168 148 140 145 164 182 186 191 180 171 175 179 186 177 176 185 192 184 186 188 194 187 190 196 192 193 188
159 131 206 184 185 28 2 310 310 58 28 271 257 251 252 171 149 87 97 122 133 119 112 111 153 162 163 152 141 135 139 166 155 153 154 158 152 153 167 164 171 175 163 153 172 162 167 172 178 187 181 227 199 186 197 215 219 208 199 181 156 151 158 179 182 176 169 169 165 187 184 186 178 186 182 186 200 222 210 194 197 206 222 230 192 199
130 195 176 130 142 194 197 193 157 140 217 218 228 211 195 185 148 131 119 128 135 132 140 139 99 47 113 148 149 148 151 163 159 149 156 165 169 171 166 167 172 170 170 170 155 172 155 164 168 176 195 240 190 185 206 235 241 217 200 162 159 155 167 170 164 173 189 178 186 181 179 190 188 182 185 185 196 200 243 243 215 218 209 211 197 211
189 178 161 181 191 213 189 157 185 151 163 195 190 182 155 159 150 148 162 164 177 161 155 138 130 112 134 170 168 149 152 155 167 161 150 158 176 177 172 160 158 165 159 145 124 153 176 190 172 165 207 239 194 200 216 229 237 221 203 173 172 169 173 159 173 192 194 184 204 193 187 183 187 190 186 188 184 195 205 240 246 225 224 214 210 215